| time (UTC) | temp C | wind direction | speed KPH | gust KPH | rain 1hr cm | rain 24hr cm | rain mn cm | humidity % | barometer mb |
| 20260507104641 | 6 | 43 | 8.0 | 12.9 | 0.00 | 0.00 | 0.00 | 87 | 1017.7 |
| 20260507104141 | 6 | 69 | 6.4 | 14.5 | 0.00 | 0.00 | 0.00 | 88 | 1017.7 |
| 20260507103641 | 6 | 41 | 6.4 | 14.5 | 0.00 | 0.00 | 0.00 | 88 | 1017.7 |
| 20260507103141 | 6 | 41 | 9.7 | 12.9 | 0.00 | 0.00 | 0.00 | 88 | 1017.8 |
| 20260507102141 | 6 | 57 | 6.4 | 11.3 | 0.00 | 0.00 | 0.00 | 88 | 1017.9 |
| 20260507101641 | 6 | 68 | 6.4 | 9.7 | 0.00 | 0.00 | 0.00 | 89 | 1017.8 |
| 20260507101140 | 6 | 74 | 6.4 | 9.7 | 0.00 | 0.00 | 0.00 | 89 | 1017.8 |
| 20260507100641 | 6 | 71 | 6.4 | 11.3 | 0.00 | 0.00 | 0.00 | 89 | 1017.7 |
| 20260507100141 | 6 | 54 | 6.4 | 11.3 | 0.00 | 0.00 | 0.00 | 90 | 1017.8 |
| 20260507095640 | 6 | 63 | 8.0 | 14.5 | 0.00 | 0.00 | 0.00 | 90 | 1017.9 |
| 20260507095141 | 6 | 49 | 6.4 | 14.5 | 0.00 | 0.00 | 0.00 | 90 | 1017.9 |
| 20260507094641 | 6 | 51 | 6.4 | 12.9 | 0.00 | 0.00 | 0.00 | 90 | 1018.0 |
| 20260507094140 | 6 | 40 | 8.0 | 9.7 | 0.00 | 0.00 | 0.00 | 90 | 1018.0 |
| 20260507093640 | 6 | 30 | 4.8 | 9.7 | 0.00 | 0.00 | 0.00 | 90 | 1018.1 |
| 20260507093141 | 6 | 34 | 8.0 | 11.3 | 0.00 | 0.00 | 0.00 | 90 | 1018.2 |
| 20260507092641 | 6 | 66 | 6.4 | 11.3 | 0.00 | 0.00 | 0.00 | 89 | 1018.2 |
| 20260507092140 | 6 | 60 | 6.4 | 11.3 | 0.00 | 0.00 | 0.00 | 89 | 1018.2 |
| 20260507090640 | 6 | 42 | 6.4 | 9.7 | 0.00 | 0.00 | 0.00 | 90 | 1018.5 |
| 20260507090140 | 6 | 48 | 6.4 | 9.7 | 0.00 | 0.00 | 0.00 | 90 | 1018.6 |
| 20260507085640 | 6 | 63 | 6.4 | 9.7 | 0.00 | 0.00 | 0.00 | 90 | 1018.7 |
| 20260507085140 | 6 | 47 | 4.8 | 11.3 | 0.00 | 0.00 | 0.00 | 90 | 1018.6 |
| 20260507084640 | 6 | 32 | 6.4 | 11.3 | 0.00 | 0.00 | 0.00 | 90 | 1018.7 |
| 20260507084140 | 6 | 42 | 9.7 | 11.3 | 0.00 | 0.00 | 0.00 | 90 | 1018.7 |
| 20260507083640 | 6 | 28 | 8.0 | 11.3 | 0.00 | 0.00 | 0.00 | 90 | 1018.7 |
| 20260507083140 | 7 | 54 | 6.4 | 11.3 | 0.00 | 0.00 | 0.00 | 90 | 1018.8 |
| 20260507082639 | 7 | 67 | 6.4 | 11.3 | 0.00 | 0.00 | 0.00 | 90 | 1018.8 |
| 20260507081640 | 7 | 53 | 4.8 | 9.7 | 0.00 | 0.00 | 0.00 | 90 | 1018.9 |
| 20260507080639 | 7 | 58 | 6.4 | 9.7 | 0.00 | 0.00 | 0.00 | 90 | 1018.9 |
| 20260507080139 | 7 | 43 | 6.4 | 9.7 | 0.00 | 0.00 | 0.00 | 90 | 1018.9 |
| 20260507075639 | 7 | 21 | 8.0 | 9.7 | 0.00 | 0.00 | 0.00 | 90 | 1018.6 |
| 20260507075139 | 7 | 25 | 6.4 | 9.7 | 0.00 | 0.00 | 0.00 | 90 | 1018.6 |
| 20260507074639 | 7 | 40 | 8.0 | 9.7 | 0.00 | 0.00 | 0.00 | 90 | 1018.5 |
| 20260507074139 | 7 | 49 | 8.0 | 11.3 | 0.00 | 0.00 | 0.00 | 90 | 1018.6 |
| 20260507073639 | 7 | 61 | 6.4 | 11.3 | 0.00 | 0.00 | 0.00 | 90 | 1018.6 |
| 20260507073139 | 7 | 42 | 6.4 | 11.3 | 0.00 | 0.00 | 0.00 | 90 | 1018.6 |
| 20260507072639 | 7 | 78 | 8.0 | 9.7 | 0.00 | 0.00 | 0.00 | 90 | 1018.8 |
| 20260507071139 | 7 | 62 | 4.8 | 11.3 | 0.00 | 0.00 | 0.00 | 90 | 1019.0 |
| 20260507070138 | 7 | 64 | 4.8 | 9.7 | 0.00 | 0.00 | 0.00 | 89 | 1019.0 |
| 20260507065638 | 7 | 69 | 4.8 | 8.0 | 0.00 | 0.00 | 0.00 | 89 | 1018.6 |
| 20260507065139 | 7 | 49 | 4.8 | 8.0 | 0.00 | 0.00 | 0.00 | 89 | 1018.6 |
| 20260507064138 | 7 | 33 | 0.0 | 9.7 | 0.00 | 0.00 | 0.00 | 89 | 1018.6 |
| 20260507063638 | 8 | 44 | 6.4 | 9.7 | 0.00 | 0.00 | 0.00 | 89 | 1018.9 |
| 20260507063138 | 8 | 16 | 3.2 | 11.3 | 0.00 | 0.00 | 0.00 | 89 | 1018.8 |
| 20260507062638 | 8 | 59 | 8.0 | 11.3 | 0.00 | 0.00 | 0.00 | 89 | 1018.9 |
| 20260507062138 | 8 | 36 | 3.2 | 12.9 | 0.00 | 0.00 | 0.00 | 89 | 1019.0 |
| 20260507061638 | 8 | 31 | 9.7 | 12.9 | 0.00 | 0.00 | 0.00 | 89 | 1019.0 |
| 20260507061138 | 8 | 13 | 4.8 | 12.9 | 0.00 | 0.00 | 0.00 | 89 | 1018.9 |
| 20260507060638 | 8 | 39 | 6.4 | 9.7 | 0.00 | 0.00 | 0.00 | 89 | 1019.0 |
| 20260507060138 | 8 | 52 | 4.8 | 11.3 | 0.00 | 0.00 | 0.00 | 90 | 1018.9 |
| 20260507055638 | 8 | 32 | 8.0 | 11.3 | 0.00 | 0.00 | 0.00 | 90 | 1018.4 |
| 20260507055138 | 8 | 36 | 8.0 | 8.0 | 0.00 | 0.00 | 0.00 | 90 | 1018.4 |
| 20260507054638 | 8 | 45 | 4.8 | 8.0 | 0.00 | 0.00 | 0.00 | 89 | 1018.4 |
| 20260507054137 | 8 | 31 | 4.8 | 9.7 | 0.00 | 0.00 | 0.00 | 90 | 1018.3 |
| 20260507053638 | 8 | 44 | 4.8 | 9.7 | 0.00 | 0.00 | 0.00 | 90 | 1018.7 |
| 20260507053137 | 8 | 38 | 3.2 | 8.0 | 0.00 | 0.00 | 0.00 | 90 | 1018.6 |
| 20260507052638 | 8 | 63 | 8.0 | 8.0 | 0.00 | 0.00 | 0.00 | 90 | 1018.6 |
| 20260507051638 | 8 | 24 | 6.4 | 8.0 | 0.00 | 0.00 | 0.00 | 90 | 1018.6 |
| 20260507051137 | 8 | 40 | 4.8 | 11.3 | 0.00 | 0.00 | 0.00 | 90 | 1018.7 |
| 20260507050637 | 8 | 41 | 8.0 | 11.3 | 0.00 | 0.00 | 0.00 | 90 | 1018.7 |
| 20260507050137 | 8 | 63 | 3.2 | 9.7 | 0.00 | 0.00 | 0.00 | 90 | 1018.7 |
| 20260507045637 | 8 | 42 | 3.2 | 9.7 | 0.00 | 0.00 | 0.00 | 89 | 1018.2 |
| 20260507045137 | 8 | 68 | 4.8 | 8.0 | 0.00 | 0.00 | 0.00 | 89 | 1018.2 |
| 20260507044637 | 8 | 53 | 6.4 | 11.3 | 0.00 | 0.00 | 0.00 | 89 | 1018.4 |
| 20260507044137 | 8 | 51 | 4.8 | 11.3 | 0.00 | 0.00 | 0.00 | 89 | 1018.3 |
| 20260507043637 | 9 | 52 | 3.2 | 11.3 | 0.00 | 0.00 | 0.00 | 89 | 1018.6 |
| 20260507043137 | 9 | 76 | 4.8 | 9.7 | 0.00 | 0.00 | 0.00 | 89 | 1018.6 |
| 20260507042637 | 9 | 35 | 8.0 | 9.7 | 0.00 | 0.00 | 0.00 | 88 | 1018.7 |
| 20260507041637 | 9 | 44 | 3.2 | 8.0 | 0.00 | 0.00 | 0.00 | 88 | 1018.6 |
| 20260507040137 | 10 | 37 | 0.0 | 6.4 | 0.00 | 0.00 | 0.00 | 87 | 1018.5 |
| 20260507035637 | 10 | 45 | 6.4 | 8.0 | 0.00 | 0.00 | 0.00 | 87 | 1017.9 |
| 20260507035136 | 10 | 47 | 3.2 | 8.0 | 0.00 | 0.00 | 0.00 | 87 | 1017.9 |
| 20260507034637 | 10 | 53 | 4.8 | 6.4 | 0.00 | 0.00 | 0.00 | 86 | 1017.8 |
| 20260507034137 | 10 | 55 | 6.4 | 6.4 | 0.00 | 0.00 | 0.00 | 86 | 1017.7 |
| 20260507033136 | 11 | 59 | 1.6 | 8.0 | 0.00 | 0.00 | 0.00 | 85 | 1018.0 |
| 20260507032637 | 11 | 66 | 3.2 | 6.4 | 0.00 | 0.00 | 0.00 | 85 | 1018.0 |
| 20260507031636 | 11 | 79 | 3.2 | 8.0 | 0.00 | 0.00 | 0.00 | 83 | 1018.0 |
| 20260507031136 | 11 | 5 | 3.2 | 6.4 | 0.00 | 0.00 | 0.00 | 83 | 1018.0 |
| 20260507030636 | 12 | 347 | 3.2 | 4.8 | 0.00 | 0.00 | 0.00 | 82 | 1018.1 |
| 20260507025136 | 12 | 244 | 0.0 | 1.6 | 0.00 | 0.00 | 0.00 | 81 | 1017.1 |
| 20260507024636 | 13 | 244 | 0.0 | 1.6 | 0.00 | 0.00 | 0.00 | 80 | 1017.0 |
| 20260507023636 | 13 | 244 | 0.0 | 6.4 | 0.00 | 0.00 | 0.00 | 79 | 1017.3 |
| 20260507023136 | 13 | 244 | 0.0 | 6.4 | 0.00 | 0.00 | 0.00 | 79 | 1017.2 |
| 20260507022136 | 14 | 245 | 3.2 | 6.4 | 0.00 | 0.00 | 0.00 | 78 | 1017.1 |
| 20260507021636 | 15 | 245 | 3.2 | 8.0 | 0.00 | 0.00 | 0.00 | 77 | 1017.4 |
| 20260507021136 | 15 | 243 | 0.0 | 8.0 | 0.00 | 0.00 | 0.00 | 77 | 1017.4 |
| 20260507020636 | 15 | 242 | 6.4 | 11.3 | 0.00 | 0.00 | 0.00 | 76 | 1017.3 |
| 20260507020135 | 15 | 231 | 6.4 | 11.3 | 0.00 | 0.00 | 0.00 | 75 | 1017.4 |
| 20260507015635 | 15 | 234 | 1.6 | 8.0 | 0.00 | 0.00 | 0.00 | 75 | 1016.6 |
| 20260507015135 | 15 | 234 | 0.0 | 8.0 | 0.00 | 0.00 | 0.00 | 74 | 1016.6 |
| 20260507014635 | 16 | 225 | 0.0 | 9.7 | 0.00 | 0.00 | 0.00 | 74 | 1016.8 |
| 20260507014136 | 16 | 232 | 8.0 | 9.7 | 0.00 | 0.00 | 0.00 | 73 | 1016.8 |
| 20260507013635 | 16 | 241 | 0.0 | 9.7 | 0.00 | 0.00 | 0.00 | 73 | 1016.7 |
| 20260507013135 | 16 | 240 | 3.2 | 11.3 | 0.00 | 0.00 | 0.00 | 71 | 1016.6 |
| 20260507012635 | 16 | 248 | 3.2 | 11.3 | 0.00 | 0.00 | 0.00 | 71 | 1016.7 |
| 20260507011635 | 17 | 244 | 1.6 | 11.3 | 0.00 | 0.00 | 0.00 | 70 | 1017.1 |
| 20260507011135 | 17 | 217 | 0.0 | 11.3 | 0.00 | 0.00 | 0.00 | 70 | 1017.1 |
| 20260507010635 | 17 | 232 | 1.6 | 17.7 | 0.00 | 0.00 | 0.00 | 69 | 1017.0 |
| 20260507010135 | 17 | 214 | 9.7 | 17.7 | 0.00 | 0.00 | 0.00 | 67 | 1017.0 |
| 20260507005635 | 17 | 234 | 4.8 | 14.5 | 0.00 | 0.00 | 0.00 | 66 | 1016.5 |
| 20260507005135 | 18 | 223 | 8.0 | 14.5 | 0.00 | 0.00 | 0.00 | 66 | 1016.5 |
| 20260507004635 | 18 | 254 | 0.0 | 12.9 | 0.00 | 0.00 | 0.00 | 65 | 1016.5 |
| 20260507004135 | 18 | 235 | 0.0 | 12.9 | 0.00 | 0.00 | 0.00 | 64 | 1016.6 |
| 20260507003635 | 18 | 241 | 1.6 | 14.5 | 0.00 | 0.00 | 0.00 | 65 | 1016.8 |
| 20260507003135 | 18 | 222 | 6.4 | 16.1 | 0.00 | 0.00 | 0.00 | 63 | 1016.7 |
| 20260507002634 | 18 | 257 | 4.8 | 16.1 | 0.00 | 0.00 | 0.00 | 63 | 1016.6 |
| 20260507002135 | 18 | 225 | 3.2 | 14.5 | 0.00 | 0.00 | 0.00 | 62 | 1016.6 |
| 20260507001635 | 19 | 230 | 3.2 | 17.7 | 0.00 | 0.00 | 0.00 | 61 | 1016.6 |
| 20260507001134 | 19 | 211 | 3.2 | 17.7 | 0.00 | 0.00 | 0.00 | 63 | 1016.7 |
| 20260507000635 | 19 | 195 | 4.8 | 14.5 | 0.00 | 0.00 | 0.00 | 61 | 1016.6 |
| 20260507000134 | 19 | 257 | 3.2 | 20.9 | 0.00 | 0.00 | 0.00 | 61 | 1016.5 |
| 20260506235634 | 20 | 161 | 6.4 | 20.9 | 0.00 | 0.00 | 0.00 | 59 | 1016.8 |
| 20260506235134 | 20 | 237 | 6.4 | 17.7 | 0.00 | 0.00 | 0.00 | 59 | 1016.9 |
| 20260506234634 | 20 | 238 | 9.7 | 19.3 | 0.00 | 0.00 | 0.00 | 59 | 1016.9 |
| 20260506234134 | 20 | 218 | 4.8 | 19.3 | 0.00 | 0.00 | 0.00 | 59 | 1016.9 |
| 20260506233634 | 20 | 202 | 1.6 | 16.1 | 0.00 | 0.00 | 0.00 | 60 | 1017.0 |
| 20260506233134 | 20 | 221 | 8.0 | 16.1 | 0.00 | 0.00 | 0.00 | 59 | 1016.9 |
| 20260506232634 | 20 | 244 | 8.0 | 14.5 | 0.00 | 0.00 | 0.00 | 59 | 1016.9 |
| 20260506232134 | 20 | 227 | 9.7 | 16.1 | 0.00 | 0.00 | 0.00 | 59 | 1016.9 |
| 20260506231634 | 20 | 242 | 1.6 | 16.1 | 0.00 | 0.00 | 0.00 | 57 | 1016.9 |
| 20260506231134 | 21 | 227 | 8.0 | 19.3 | 0.00 | 0.00 | 0.00 | 56 | 1017.0 |
| 20260506230633 | 21 | 239 | 0.0 | 19.3 | 0.00 | 0.00 | 0.00 | 58 | 1017.1 |
| 20260506230133 | 21 | 221 | 4.8 | 19.3 | 0.00 | 0.00 | 0.00 | 56 | 1017.0 |
| 20260506225634 | 21 | 202 | 4.8 | 19.3 | 0.00 | 0.00 | 0.00 | 58 | 1017.4 |
| 20260506225133 | 21 | 254 | 1.6 | 16.1 | 0.00 | 0.00 | 0.00 | 55 | 1017.0 |
| 20260506224634 | 21 | 227 | 0.0 | 16.1 | 0.00 | 0.00 | 0.00 | 56 | 1017.1 |
| 20260506224134 | 21 | 78 | 1.6 | 19.3 | 0.00 | 0.00 | 0.00 | 53 | 1017.4 |
| 20260506223634 | 21 | 220 | 3.2 | 22.5 | 0.00 | 0.00 | 0.00 | 54 | 1017.5 |
| 20260506223134 | 21 | 254 | 8.0 | 22.5 | 0.00 | 0.00 | 0.00 | 54 | 1017.5 |
| 20260506222633 | 21 | 250 | 6.4 | 17.7 | 0.00 | 0.00 | 0.00 | 53 | 1017.6 |
| 20260506222133 | 21 | 329 | 3.2 | 20.9 | 0.00 | 0.00 | 0.00 | 52 | 1017.8 |
| 20260506221633 | 21 | 219 | 11.3 | 20.9 | 0.00 | 0.00 | 0.00 | 52 | 1017.7 |
| 20260506221133 | 21 | 253 | 20.9 | 20.9 | 0.00 | 0.00 | 0.00 | 52 | 1017.8 |
| 20260506220633 | 21 | 196 | 6.4 | 17.7 | 0.00 | 0.00 | 0.00 | 53 | 1017.8 |
| 20260506220133 | 21 | 328 | 4.8 | 17.7 | 0.00 | 0.00 | 0.00 | 49 | 1017.6 |
| 20260506215633 | 21 | 270 | 1.6 | 16.1 | 0.00 | 0.00 | 0.00 | 51 | 1017.9 |
| 20260506215133 | 21 | 321 | 0.0 | 20.9 | 0.00 | 0.00 | 0.00 | 51 | 1017.9 |
| 20260506214633 | 21 | 192 | 1.6 | 20.9 | 0.00 | 0.00 | 0.00 | 49 | 1017.8 |
| 20260506214132 | 21 | 198 | 6.4 | 14.5 | 0.00 | 0.00 | 0.00 | 49 | 1018.2 |
| 20260506213132 | 21 | 48 | 1.6 | 19.3 | 0.00 | 0.00 | 0.00 | 51 | 1018.2 |
| 20260506212632 | 21 | 260 | 14.5 | 19.3 | 0.00 | 0.00 | 0.00 | 50 | 1018.2 |
| 20260506212133 | 20 | 328 | 1.6 | 14.5 | 0.00 | 0.00 | 0.00 | 53 | 1018.3 |
| 20260506211633 | 21 | 205 | 6.4 | 14.5 | 0.00 | 0.00 | 0.00 | 50 | 1018.2 |
| 20260506211132 | 21 | 209 | 6.4 | 12.9 | 0.00 | 0.00 | 0.00 | 51 | 1018.5 |
| 20260506210632 | 21 | 313 | 3.2 | 12.9 | 0.00 | 0.00 | 0.00 | 49 | 1018.4 |
| 20260506210132 | 21 | 240 | 4.8 | 19.3 | 0.00 | 0.00 | 0.00 | 50 | 1018.5 |
| 20260506205632 | 21 | 240 | 8.0 | 19.3 | 0.00 | 0.00 | 0.00 | 50 | 1018.8 |
| 20260506205132 | 20 | 229 | 1.6 | 16.1 | 0.00 | 0.00 | 0.00 | 52 | 1018.6 |
| 20260506204132 | 20 | 225 | 8.0 | 19.3 | 0.00 | 0.00 | 0.00 | 52 | 1018.6 |
| 20260506203632 | 20 | 271 | 11.3 | 14.5 | 0.00 | 0.00 | 0.00 | 53 | 1018.6 |
| 20260506203132 | 20 | 275 | 4.8 | 16.1 | 0.00 | 0.00 | 0.00 | 54 | 1018.6 |
| 20260506202631 | 20 | 244 | 4.8 | 19.3 | 0.00 | 0.00 | 0.00 | 53 | 1018.7 |
| 20260506202131 | 20 | 259 | 6.4 | 19.3 | 0.00 | 0.00 | 0.00 | 53 | 1018.7 |
| 20260506201631 | 20 | 231 | 16.1 | 19.3 | 0.00 | 0.00 | 0.00 | 51 | 1018.6 |
| 20260506201131 | 20 | 251 | 8.0 | 16.1 | 0.00 | 0.00 | 0.00 | 57 | 1018.8 |
| 20260506200631 | 20 | 129 | 6.4 | 19.3 | 0.00 | 0.00 | 0.00 | 52 | 1018.9 |
| 20260506200132 | 20 | 207 | 4.8 | 22.5 | 0.00 | 0.00 | 0.00 | 57 | 1018.9 |
| 20260506195631 | 20 | 277 | 9.7 | 22.5 | 0.00 | 0.00 | 0.00 | 53 | 1019.4 |
| 20260506195131 | 19 | 355 | 3.2 | 22.5 | 0.00 | 0.00 | 0.00 | 57 | 1019.2 |
| 20260506194631 | 19 | 176 | 3.2 | 19.3 | 0.00 | 0.00 | 0.00 | 58 | 1019.3 |
| 20260506194131 | 19 | 194 | 4.8 | 19.3 | 0.00 | 0.00 | 0.00 | 58 | 1019.3 |
| 20260506193631 | 18 | 197 | 1.6 | 19.3 | 0.00 | 0.00 | 0.00 | 56 | 1019.3 |
| 20260506192631 | 19 | 246 | 12.9 | 12.9 | 0.00 | 0.00 | 0.00 | 59 | 1019.5 |
| 20260506191631 | 18 | 344 | 3.2 | 19.3 | 0.00 | 0.00 | 0.00 | 63 | 1019.5 |
| 20260506191131 | 18 | 273 | 3.2 | 19.3 | 0.00 | 0.00 | 0.00 | 59 | 1019.4 |
| 20260506190631 | 18 | 244 | 17.7 | 19.3 | 0.00 | 0.00 | 0.00 | 60 | 1019.5 |
| 20260506190131 | 18 | 244 | 8.0 | 17.7 | 0.00 | 0.00 | 0.00 | 60 | 1019.5 |
| 20260506185630 | 17 | 172 | 3.2 | 19.3 | 0.00 | 0.00 | 0.00 | 62 | 1019.8 |
| 20260506185131 | 17 | 274 | 0.0 | 20.9 | 0.00 | 0.00 | 0.00 | 59 | 1019.7 |
| 20260506184630 | 18 | 215 | 8.0 | 20.9 | 0.00 | 0.00 | 0.00 | 58 | 1020.1 |
| 20260506184130 | 18 | 289 | 1.6 | 16.1 | 0.00 | 0.00 | 0.00 | 62 | 1020.1 |
| 20260506183631 | 17 | 223 | 1.6 | 16.1 | 0.00 | 0.03 | 0.00 | 61 | 1019.8 |
| 20260506183130 | 18 | 249 | 6.4 | 12.9 | 0.00 | 0.03 | 0.00 | 63 | 1020.1 |
| 20260506182630 | 17 | 226 | 3.2 | 12.9 | 0.00 | 0.08 | 0.00 | 63 | 1019.9 |
| 20260506182130 | 17 | 236 | 3.2 | 16.1 | 0.00 | 0.18 | 0.00 | 63 | 1019.8 |
| 20260506181630 | 17 | 278 | 11.3 | 16.1 | 0.00 | 0.20 | 0.00 | 62 | 1019.9 |
| 20260506181130 | 16 | 238 | 0.0 | 16.1 | 0.00 | 0.20 | 0.00 | 63 | 1019.7 |
| 20260506180630 | 16 | 223 | 4.8 | 16.1 | 0.00 | 0.20 | 0.00 | 64 | 1019.7 |
| 20260506180130 | 16 | 211 | 4.8 | 12.9 | 0.00 | 0.20 | 0.00 | 64 | 1019.7 |
| 20260506175630 | 16 | 243 | 4.8 | 12.9 | 0.00 | 0.20 | 0.00 | 64 | 1019.7 |
| 20260506175130 | 16 | 234 | 1.6 | 14.5 | 0.00 | 0.23 | 0.00 | 64 | 1019.7 |
| 20260506173630 | 16 | 214 | 9.7 | 14.5 | 0.00 | 0.25 | 0.00 | 69 | 1019.8 |
| 20260506173130 | 15 | 246 | 6.4 | 12.9 | 0.00 | 0.25 | 0.00 | 67 | 1019.5 |
| 20260506172629 | 15 | 230 | 4.8 | 14.5 | 0.00 | 0.25 | 0.00 | 66 | 1019.6 |
| 20260506171630 | 15 | 250 | 3.2 | 16.1 | 0.00 | 0.25 | 0.00 | 71 | 1019.8 |
| 20260506170629 | 14 | 244 | 6.4 | 14.5 | 0.00 | 0.25 | 0.00 | 71 | 1019.3 |
| 20260506170130 | 15 | 229 | 8.0 | 14.5 | 0.00 | 0.28 | 0.00 | 68 | 1019.5 |
| 20260506165630 | 15 | 252 | 6.4 | 14.5 | 0.00 | 0.28 | 0.00 | 69 | 1019.5 |
| 20260506164629 | 14 | 267 | 3.2 | 14.5 | 0.00 | 0.30 | 0.00 | 71 | 1019.3 |
| 20260506164129 | 14 | 242 | 6.4 | 14.5 | 0.00 | 0.30 | 0.00 | 69 | 1019.3 |
| 20260506163129 | 14 | 245 | 11.3 | 16.1 | 0.00 | 0.33 | 0.00 | 71 | 1019.3 |
| 20260506162629 | 14 | 232 | 3.2 | 12.9 | 0.00 | 0.33 | 0.00 | 73 | 1019.5 |
| 20260506162129 | 13 | 192 | 3.2 | 12.9 | 0.00 | 0.36 | 0.00 | 72 | 1019.1 |
| 20260506161629 | 13 | 223 | 0.0 | 6.4 | 0.00 | 0.36 | 0.00 | 75 | 1019.0 |
| 20260506161129 | 13 | 190 | 1.6 | 6.4 | 0.00 | 0.38 | 0.00 | 76 | 1019.1 |
| 20260506160629 | 12 | 191 | 0.0 | 6.4 | 0.00 | 0.41 | 0.00 | 76 | 1018.9 |
| 20260506160129 | 12 | 176 | 1.6 | 8.0 | 0.00 | 0.48 | 0.00 | 79 | 1018.9 |
| 20260506155629 | 12 | 240 | 1.6 | 9.7 | 0.00 | 0.51 | 0.00 | 78 | 1018.7 |
| 20260506155129 | 11 | 243 | 6.4 | 9.7 | 0.00 | 0.53 | 0.00 | 80 | 1018.7 |
| 20260506154629 | 11 | 197 | 1.6 | 8.0 | 0.00 | 0.53 | 0.00 | 84 | 1018.6 |
| 20260506154129 | 10 | 238 | 1.6 | 8.0 | 0.00 | 0.56 | 0.00 | 88 | 1018.4 |
| 20260506153628 | 10 | 178 | 0.0 | 4.8 | 0.00 | 0.56 | 0.00 | 90 | 1018.4 |
| 20260506153129 | 9 | 149 | 0.0 | 0.0 | 0.00 | 0.56 | 0.00 | 93 | 1018.1 |
| 20260506152629 | 8 | 149 | 0.0 | 0.0 | 0.00 | 0.56 | 0.00 | 93 | 1018.2 |
| 20260506152128 | 8 | 149 | 0.0 | 0.0 | 0.00 | 0.56 | 0.00 | 94 | 1017.9 |
| 20260506151628 | 8 | 128 | 0.0 | 0.0 | 0.00 | 0.56 | 0.00 | 94 | 1017.9 |
| 20260506151128 | 7 | 128 | 0.0 | 0.0 | 0.00 | 0.56 | 0.00 | 94 | 1017.8 |
| 20260506150628 | 7 | 128 | 0.0 | 0.0 | 0.00 | 0.56 | 0.00 | 94 | 1017.7 |
| 20260506150129 | 7 | 128 | 0.0 | 0.0 | 0.00 | 0.56 | 0.00 | 94 | 1017.7 |
| 20260506145628 | 6 | 128 | 0.0 | 0.0 | 0.00 | 0.56 | 0.00 | 94 | 1017.7 |
| 20260506145128 | 6 | 91 | 0.0 | 0.0 | 0.00 | 0.56 | 0.00 | 94 | 1017.7 |
| 20260506144628 | 6 | 91 | 0.0 | 0.0 | 0.00 | 0.56 | 0.00 | 94 | 1017.6 |
| 20260506144128 | 6 | 91 | 0.0 | 0.0 | 0.00 | 0.56 | 0.00 | 94 | 1017.7 |
| 20260506143628 | 6 | 91 | 0.0 | 1.6 | 0.00 | 0.56 | 0.00 | 94 | 1017.6 |
| 20260506143128 | 6 | 91 | 0.0 | 4.8 | 0.00 | 0.56 | 0.00 | 94 | 1017.5 |
| 20260506142628 | 5 | 91 | 1.6 | 6.4 | 0.00 | 0.56 | 0.00 | 94 | 1017.2 |
| 20260506141628 | 5 | 91 | 4.8 | 6.4 | 0.00 | 0.56 | 0.00 | 94 | 1017.2 |
| 20260506141127 | 4 | 74 | 3.2 | 6.4 | 0.00 | 0.56 | 0.00 | 94 | 1016.8 |
| 20260506140628 | 4 | 74 | 4.8 | 6.4 | 0.00 | 0.58 | 0.00 | 94 | 1016.8 |
| 20260506140128 | 3 | 74 | 6.4 | 11.3 | 0.00 | 0.61 | 0.00 | 94 | 1016.8 |
| 20260506135627 | 3 | 71 | 4.8 | 11.3 | 0.00 | 0.61 | 0.00 | 94 | 1016.8 |
| 20260506135127 | 3 | 81 | 6.4 | 11.3 | 0.00 | 0.61 | 0.00 | 94 | 1016.9 |
| 20260506134627 | 2 | 53 | 4.8 | 11.3 | 0.00 | 0.64 | 0.00 | 94 | 1016.5 |
| 20260506134128 | 2 | 69 | 3.2 | 8.0 | 0.00 | 0.64 | 0.00 | 94 | 1016.4 |
| 20260506133627 | 1 | 42 | 4.8 | 8.0 | 0.00 | 0.64 | 0.00 | 93 | 1016.1 |
| 20260506133127 | 1 | 53 | 3.2 | 8.0 | 0.00 | 0.64 | 0.00 | 93 | 1016.2 |
| 20260506132627 | 1 | 28 | 4.8 | 8.0 | 0.00 | 0.64 | 0.00 | 93 | 1016.1 |
| 20260506132127 | 1 | 55 | 4.8 | 9.7 | 0.00 | 0.64 | 0.00 | 93 | 1016.0 |
| 20260506131627 | 1 | 46 | 4.8 | 9.7 | 0.00 | 0.64 | 0.00 | 93 | 1016.1 |
| 20260506130127 | 1 | 44 | 4.8 | 8.0 | 0.00 | 0.69 | 0.00 | 93 | 1015.9 |
| 20260506125127 | 1 | 32 | 4.8 | 8.0 | 0.00 | 0.69 | 0.00 | 93 | 1016.0 |
| 20260506124627 | 1 | 39 | 4.8 | 8.0 | 0.00 | 0.69 | 0.00 | 93 | 1016.0 |
| 20260506124127 | 1 | 42 | 6.4 | 8.0 | 0.00 | 0.69 | 0.00 | 93 | 1015.9 |
| 20260506123127 | 1 | 32 | 4.8 | 8.0 | 0.00 | 0.74 | 0.00 | 93 | 1015.7 |
| 20260506122626 | 1 | 75 | 4.8 | 8.0 | 0.00 | 0.74 | 0.00 | 93 | 1015.7 |
| 20260506121627 | 1 | 42 | 6.4 | 8.0 | 0.00 | 0.74 | 0.00 | 93 | 1015.7 |
| 20260506121127 | 1 | 65 | 4.8 | 8.0 | 0.00 | 0.74 | 0.00 | 92 | 1015.7 |
| 20260506120626 | 1 | 36 | 6.4 | 8.0 | 0.00 | 0.76 | 0.00 | 93 | 1015.6 |
| 20260506120126 | 1 | 55 | 6.4 | 8.0 | 0.00 | 0.79 | 0.00 | 93 | 1015.6 |
| 20260506115626 | 1 | 38 | 4.8 | 8.0 | 0.00 | 0.84 | 0.00 | 93 | 1016.0 |
| 20260506115126 | 1 | 53 | 4.8 | 8.0 | 0.00 | 0.86 | 0.00 | 93 | 1015.9 |
| 20260506114626 | 2 | 51 | 4.8 | 8.0 | 0.00 | 0.86 | 0.00 | 93 | 1016.0 |
| 20260506114126 | 1 | 74 | 3.2 | 8.0 | 0.00 | 0.86 | 0.00 | 93 | 1015.8 |
| 20260506113626 | 2 | 61 | 3.2 | 8.0 | 0.00 | 0.86 | 0.00 | 93 | 1016.0 |
| 20260506113126 | 2 | 12 | 6.4 | 8.0 | 0.00 | 0.86 | 0.00 | 93 | 1015.9 |
| 20260506111626 | 2 | 74 | 6.4 | 8.0 | 0.00 | 0.86 | 0.00 | 92 | 1015.8 |
| 20260506110625 | 2 | 69 | 6.4 | 9.7 | 0.00 | 0.89 | 0.00 | 92 | 1015.8 |
| 20260506110126 | 2 | 65 | 8.0 | 9.7 | 0.00 | 0.89 | 0.00 | 92 | 1015.8 |
| 20260506105126 | 2 | 32 | 6.4 | 8.0 | 0.00 | 0.89 | 0.00 | 92 | 1016.3 |